EW8061 Weather Reports


time (UTC)temp
F
wind
direction
speed
knots
gust
knots
rain 1hr
in
rain 24hr
in
rain mn
in
humidity
%
barometer
mb
20260510043026 49 154 0.0 0.0 0.00 0.00 0.00 89 1008.9
20260510041528 49 154 0.0 0.0 0.00 0.00 0.00 89 1008.9
20260510040023 49 154 0.0 0.0 0.00 0.00 0.00 89 1008.9
20260510034522 49 154 0.0 0.0 0.00 0.00 0.00 89 1009.0
20260510033021 49 154 0.0 0.0 0.00 0.00 0.00 89 1009.2
20260510031528 49 154 0.0 0.0 0.00 0.00 0.00 88 1009.2
20260510030019 49 154 0.0 0.0 0.00 0.00 0.00 88 1009.3
20260510024518 49 154 0.0 0.0 0.00 0.00 0.00 88 1009.3
20260510023017 49 154 0.0 1.7 0.00 0.00 0.00 87 1009.2
20260510021524 50 154 0.0 0.0 0.00 0.00 0.00 87 1009.2
20260510020019 50 154 0.0 0.0 0.00 0.00 0.00 87 1009.3
20260510014513 50 154 0.0 0.0 0.00 0.00 0.00 87 1009.6
20260510013011 50 154 0.0 0.0 0.00 0.00 0.00 86 1009.6
20260510011510 50 154 0.0 0.0 0.00 0.00 0.00 86 1009.8
20260510010009 50 154 0.0 0.0 0.00 0.00 0.00 86 1009.7
20260510004507 50 154 0.0 0.0 0.00 0.00 0.00 86 1009.7
20260510003006 50 154 0.0 0.0 0.00 0.00 0.00 86 1009.8
20260510001504 51 154 0.0 0.0 0.00 0.00 0.00 86 1009.9
20260510000002 51 154 0.0 0.0 0.00 0.00 0.00 85 1010.1
20260509234600 51 154 0.0 0.0 0.00 0.00 0.00 85 1010.3
20260509233058 52 154 0.0 0.0 0.00 0.00 0.00 84 1010.4
20260509231610 52 154 0.0 0.0 0.00 0.00 0.00 84 1010.5
20260509230103 52 154 0.0 0.0 0.00 0.00 0.00 84 1010.6
20260509224553 52 154 0.0 0.0 0.00 0.00 0.00 82 1010.6
20260509223058 53 154 0.0 0.0 0.00 0.00 0.00 81 1010.7
20260509221558 54 154 0.0 0.0 0.00 0.00 0.00 81 1010.5
20260509220046 54 154 0.0 0.0 0.00 0.00 0.00 80 1010.5
20260509214558 55 154 0.0 0.0 0.00 0.00 0.00 78 1010.4
20260509213044 55 154 0.0 0.0 0.00 0.00 0.00 77 1010.5
20260509211547 56 154 0.0 0.0 0.00 0.00 0.00 76 1010.6
20260509210047 57 154 0.0 0.0 0.00 0.00 0.00 74 1010.7
20260509204542 58 154 0.0 0.0 0.00 0.00 0.00 73 1010.7
20260509203043 59 154 0.0 0.0 0.00 0.00 0.00 72 1010.7
20260509201545 61 154 0.0 0.0 0.00 0.00 0.00 69 1010.6
20260509200046 62 154 0.0 2.6 0.00 0.00 0.00 65 1010.4
20260509194549 64 154 0.0 0.0 0.00 0.00 0.00 63 1010.3
20260509193041 65 154 0.9 2.6 0.00 0.00 0.00 61 1010.1
20260509191540 67 154 0.0 0.0 0.00 0.00 0.00 57 1009.9
20260509190038 69 154 0.0 0.0 0.00 0.00 0.00 54 1009.9
20260509184538 70 154 0.0 0.0 0.00 0.00 0.00 52 1009.9
20260509183057 71 154 0.0 0.0 0.00 0.00 0.00 50 1009.8
20260509181537 71 154 0.0 0.0 0.00 0.00 0.00 49 1009.8
20260509180036 71 154 0.0 2.6 0.00 0.00 0.00 48 1009.9
20260509174546 71 154 0.0 0.0 0.00 0.00 0.00 48 1009.7
20260509173036 72 154 0.0 1.7 0.00 0.00 0.00 46 1009.8
20260509171541 74 154 1.7 6.1 0.00 0.00 0.00 38 1010.0
20260509170034 75 149 0.9 5.2 0.00 0.00 0.00 37 1010.0
20260509164534 75 149 0.0 5.2 0.00 0.00 0.00 34 1009.9
20260509163043 76 149 0.9 7.0 0.00 0.00 0.00 35 1010.0
20260509161541 76 144 0.0 3.5 0.00 0.00 0.00 36 1010.0
20260509160029 76 144 0.9 6.1 0.00 0.00 0.00 34 1010.0
20260509154528 76 166 4.3 8.7 0.00 0.00 0.00 34 1010.2
20260509153042 76 184 1.7 7.8 0.00 0.00 0.00 35 1010.3
20260509151525 76 122 1.7 6.1 0.00 0.00 0.00 37 1010.3
20260509150033 73 124 0.0 0.9 0.00 0.00 0.00 46 1010.4
20260509144521 74 117 0.0 6.1 0.00 0.00 0.00 42 1010.5
20260509143021 74 109 1.7 7.0 0.00 0.00 0.00 43 1010.5
20260509141519 73 90 0.0 5.2 0.00 0.00 0.00 45 1010.6
20260509140018 75 113 0.9 7.0 0.00 0.00 0.00 44 1010.7
20260509134516 75 90 0.0 6.1 0.00 0.00 0.00 44 1010.8
20260509133015 77 169 0.0 6.1 0.00 0.00 0.00 44 1010.9
20260509131512 76 178 0.9 6.1 0.00 0.00 0.00 45 1011.1
20260509130009 75 190 0.9 3.5 0.00 0.00 0.00 46 1011.4
20260509124506 75 126 0.9 6.1 0.00 0.00 0.00 49 1011.3
20260509123005 72 105 0.9 5.2 0.00 0.00 0.00 48 1011.5
20260509121503 72 105 0.0 7.8 0.00 0.00 0.00 50 1011.8
20260509114558 72 98 0.0 7.0 0.00 0.00 0.00 54 1012.2
20260509113102 71 102 0.0 5.2 0.00 0.00 0.00 54 1012.3
20260509111553 73 107 1.7 7.8 0.00 0.00 0.00 53 1012.4
20260509110050 72 126 0.0 7.0 0.00 0.00 0.00 54 1012.7
20260509104547 71 132 2.6 7.0 0.00 0.00 0.00 55 1012.9
20260509103049 70 141 0.9 6.1 0.00 0.00 0.00 58 1013.1
20260509101541 69 147 1.7 7.0 0.00 0.00 0.00 59 1013.2
20260509100040 69 152 0.0 6.1 0.00 0.00 0.00 60 1013.1
20260509094533 67 155 0.9 8.7 0.00 0.00 0.00 63 1013.3
20260509093039 67 137 1.7 7.0 0.00 0.00 0.00 62 1013.3
20260509091526 66 128 0.0 6.1 0.00 0.00 0.00 65 1013.4
20260509090022 65 126 0.9 6.1 0.00 0.00 0.00 69 1013.5
20260509084523 63 130 0.0 6.1 0.00 0.00 0.00 72 1013.6
20260509083016 62 128 0.0 6.1 0.00 0.00 0.00 75 1013.7
20260509081509 60 124 2.6 7.8 0.00 0.00 0.00 76 1013.9
20260509080007 59 98 1.7 7.8 0.00 0.00 0.00 78 1014.0
20260509074504 58 96 1.7 7.0 0.00 0.00 0.00 82 1014.1
20260509073059 57 74 1.7 5.2 0.00 0.00 0.00 83 1014.1
20260509071609 56 50 0.0 3.5 0.00 0.00 0.00 86 1014.0
20260509070052 54 50 0.0 2.6 0.00 0.00 0.00 90 1014.1
20260509064548 53 50 0.0 3.5 0.00 0.00 0.00 92 1014.2
20260509063044 52 50 0.0 1.7 0.00 0.00 0.00 92 1014.1
20260509061547 51 50 0.0 2.6 0.00 0.00 0.00 92 1014.1
20260509060039 51 50 0.0 0.0 0.00 0.00 0.00 92 1014.1
20260509054535 50 50 0.9 2.6 0.00 0.00 0.00 92 1014.1
20260509053035 49 50 0.0 0.0 0.00 0.00 0.00 93 1014.0
20260509051534 48 50 0.0 0.0 0.00 0.00 0.00 92 1013.9
20260509050044 47 50 0.0 0.0 0.00 0.00 0.00 92 1013.9
20260509044526 46 50 0.0 0.0 0.00 0.00 0.00 91 1013.8